{"data":{"norad_id":64701,"epoch":"2026-05-25T04:42:36.406944Z","epoch_age_seconds":53992,"freshness":"FRESH","line1":"1 64701U 25142F   26145.19625471  .00004416  00000+0  37753-3 0  9997","line2":"2 64701  69.9999 121.4085 0003624 261.4068  98.6680 14.98340348 50932","mean_motion":14.98340348,"eccentricity":0.0003624,"inclination_deg":69.9999,"raan_deg":121.4085,"arg_perigee_deg":261.4068,"mean_anomaly_deg":98.668,"bstar":0.00037753,"rev_number":5093,"period_min":96.106335381152,"perigee_km":569.50515248537,"apogee_km":574.54262909902,"semimajor_km":6950.1608907922,"source":"CELESTRAK","updated_at":"2026-05-25T13:38:20.511636Z"}}